When you browse on this site, cookies collect data to enhance your experience and personalize the content and advertising you see.
Visit our Privacy Policy to learn more. By continuing to use the site, you agree to this use of cookies and data.
  • In Spain
  • List of Countries
  • For 7 days
  • Water Temperature
  • Satellite Maps
  • Weather Map
  • Weather Widgets
  • user-avatar
    Login

    Hourly Weather Babny

    Today, 19 July, Friday

    Time Temperature Precipitation Wind Pressure Humidity
    00:00 +13°C° 1.8 mm 4 mps 737 mmHg 97%
    01:00 +13°C° 1.8 mm 4 mps 737 mmHg 97%
    02:00 +13°C° 1.8 mm 4 mps 737 mmHg 97%
    03:00 +13°C° 0.5 mm 4 mps 737 mmHg 97%
    04:00 +13°C° 0.5 mm 4 mps 738 mmHg 98%
    05:00 +14°C° 0.5 mm 4 mps 738 mmHg 98%
    06:00 +14°C° 0.7 mm 4 mps 738 mmHg 97%
    07:00 +14°C° 0.7 mm 4 mps 739 mmHg 97%
    08:00 +14°C° 0.7 mm 4 mps 739 mmHg 96%
    09:00 +14°C° 0.5 mm 5 mps 739 mmHg 95%
    10:00 +14°C° 0.5 mm 5 mps 740 mmHg 94%
    11:00 +15°C° 0.5 mm 5 mps 740 mmHg 94%
    12:00 +15°C° 0.5 mm 5 mps 740 mmHg 91%
    13:00 +16°C° 0.5 mm 5 mps 740 mmHg 88%
    14:00 +17°C° 0.5 mm 5 mps 741 mmHg 85%
    15:00 +17°C° 0.1 mm 5 mps 741 mmHg 84%
    16:00 +17°C° 0.1 mm 5 mps 741 mmHg 83%
    17:00 +17°C° 0.1 mm 6 mps 742 mmHg 82%
    18:00 +16°C° 0 mm 5 mps 742 mmHg 82%
    19:00 +17°C° 0 mm 4 mps 742 mmHg 82%
    20:00 +15°C° 0 mm 4 mps 742 mmHg 82%
    21:00 +15°C° 0 mm 4 mps 742 mmHg 84%
    22:00 +14°C° 0 mm 4 mps 742 mmHg 85%
    23:00 +14°C° 0 mm 4 mps 743 mmHg 87%

    Tomorrow, 20 July, Saturday

    Time Temperature Precipitation Wind Pressure Humidity
    00:00 +13°C° 0 mm 3 mps 743 mmHg 89%
    01:00 +13°C° 0 mm 3 mps 743 mmHg 92%
    02:00 +12°C° 0 mm 3 mps 743 mmHg 94%
    03:00 +12°C° 0 mm 3 mps 744 mmHg 94%
    04:00 +12°C° 0 mm 3 mps 744 mmHg 94%
    05:00 +12°C° 0 mm 3 mps 744 mmHg 94%
    06:00 +13°C° 0 mm 3 mps 744 mmHg 91%
    07:00 +14°C° 0 mm 3 mps 745 mmHg 87%
    08:00 +17°C° 0 mm 3 mps 745 mmHg 84%
    09:00 +18°C° 0.1 mm 4 mps 745 mmHg 81%
    10:00 +19°C° 0.1 mm 4 mps 746 mmHg 78%
    11:00 +20°C° 0.1 mm 4 mps 746 mmHg 76%
    12:00 +21°C° 0.5 mm 4 mps 746 mmHg 75%
    13:00 +21°C° 0.5 mm 4 mps 746 mmHg 75%
    14:00 +22°C° 0.5 mm 5 mps 746 mmHg 74%
    15:00 +21°C° 0.3 mm 4 mps 746 mmHg 75%
    16:00 +21°C° 0.3 mm 4 mps 746 mmHg 76%
    17:00 +21°C° 0.3 mm 4 mps 746 mmHg 77%
    18:00 +20°C° 0.1 mm 3 mps 746 mmHg 81%
    19:00 +18°C° 0.1 mm 3 mps 747 mmHg 84%
    20:00 +17°C° 0.1 mm 3 mps 747 mmHg 87%
    21:00 +16°C° 0 mm 2 mps 747 mmHg 88%
    22:00 +15°C° 0 mm 2 mps 747 mmHg 90%
    23:00 +15°C° 0 mm 2 mps 747 mmHg 91%

    Day after tomorrow, 21 July, Sunday

    Time Temperature Precipitation Wind Pressure Humidity
    00:00 +14°C° 0 mm 2 mps 747 mmHg 91%
    01:00 +14°C° 0 mm 2 mps 747 mmHg 92%
    02:00 +13°C° 0 mm 2 mps 747 mmHg 92%
    03:00 +13°C° 0 mm 2 mps 748 mmHg 92%
    04:00 +13°C° 0 mm 1 mps 748 mmHg 92%
    05:00 +13°C° 0 mm 1 mps 748 mmHg 92%
    06:00 +15°C° 0 mm 1 mps 748 mmHg 87%
    07:00 +18°C° 0 mm 1 mps 748 mmHg 81%
    08:00 +20°C° 0 mm 1 mps 748 mmHg 76%
    09:00 +20°C° 0 mm 2 mps 748 mmHg 71%
    10:00 +23°C° 0 mm 2 mps 748 mmHg 66%
    11:00 +24°C° 0 mm 2 mps 748 mmHg 62%
    12:00 +25°C° 0 mm 2 mps 748 mmHg 60%
    13:00 +25°C° 0 mm 3 mps 748 mmHg 58%
    14:00 +25°C° 0 mm 3 mps 748 mmHg 56%
    15:00 +25°C° 0 mm 2 mps 748 mmHg 59%
    16:00 +25°C° 0 mm 2 mps 748 mmHg 61%
    17:00 +25°C° 0 mm 2 mps 748 mmHg 64%
    18:00 +23°C° 0 mm 1 mps 748 mmHg 70%
    19:00 +21°C° 0 mm 1 mps 748 mmHg 76%
    20:00 +17°C° 0 mm 0 mps 747 mmHg 82%
    21:00 +16°C° 0 mm 0 mps 747 mmHg 84%
    22:00 +16°C° 0 mm 0 mps 748 mmHg 85%
    23:00 +15°C° 0 mm 0 mps 748 mmHg 87%

    22 July, Monday

    Time Temperature Precipitation Wind Pressure Humidity
    00:00 +16°C° 0 mm 1 mps 747 mmHg 88%
    01:00 +15°C° 0 mm 1 mps 747 mmHg 89%
    02:00 +15°C° 0 mm 1 mps 747 mmHg 90%
    03:00 +15°C° 0 mm 1 mps 747 mmHg 90%
    04:00 +15°C° 0 mm 1 mps 747 mmHg 90%
    05:00 +16°C° 0 mm 1 mps 746 mmHg 89%
    06:00 +17°C° 0 mm 2 mps 746 mmHg 86%
    07:00 +19°C° 0 mm 2 mps 746 mmHg 82%
    08:00 +20°C° 0 mm 2 mps 746 mmHg 78%
    09:00 +21°C° 0.8 mm 2 mps 746 mmHg 79%
    10:00 +23°C° 0.8 mm 2 mps 746 mmHg 81%
    11:00 +23°C° 0.8 mm 2 mps 745 mmHg 82%
    12:00 +23°C° 0.9 mm 2 mps 745 mmHg 84%
    13:00 +22°C° 0.9 mm 1 mps 745 mmHg 86%
    14:00 +22°C° 0.9 mm 1 mps 745 mmHg 88%
    15:00 +21°C° 0.5 mm 1 mps 745 mmHg 90%
    16:00 +20°C° 0.5 mm 1 mps 744 mmHg 92%
    17:00 +19°C° 0.5 mm 1 mps 744 mmHg 94%
    18:00 +18°C° 1 mm 2 mps 744 mmHg 95%
    19:00 +17°C° 1 mm 2 mps 744 mmHg 97%
    20:00 +17°C° 1 mm 2 mps 744 mmHg 98%
    21:00 +17°C° 1 mm 2 mps 744 mmHg 98%
    22:00 +17°C° 1 mm 2 mps 744 mmHg 98%
    23:00 +17°C° 1 mm 2 mps 744 mmHg 98%

    23 July, Tuesday

    Time Temperature Precipitation Wind Pressure Humidity
    00:00 +17°C° 1 mm 2 mps 744 mmHg 98%
    01:00 +17°C° 1 mm 2 mps 744 mmHg 98%
    02:00 +17°C° 1 mm 3 mps 744 mmHg 98%
    03:00 +17°C° 0.9 mm 3 mps 744 mmHg 98%
    04:00 +16°C° 0.9 mm 3 mps 744 mmHg 98%
    05:00 +15°C° 0.9 mm 4 mps 744 mmHg 98%
    06:00 +15°C° 0.3 mm 4 mps 744 mmHg 97%
    07:00 +15°C° 0.3 mm 4 mps 744 mmHg 96%
    08:00 +15°C° 0.3 mm 4 mps 744 mmHg 96%
    09:00 +15°C° 0.2 mm 4 mps 745 mmHg 96%
    10:00 +15°C° 0.2 mm 4 mps 745 mmHg 95%
    11:00 +16°C° 0.2 mm 3 mps 745 mmHg 95%
    12:00 +16°C° 0 mm 3 mps 746 mmHg 94%
    13:00 +16°C° 0 mm 3 mps 746 mmHg 93%
    14:00 +17°C° 0 mm 3 mps 746 mmHg 92%
    15:00 +17°C° 0 mm 3 mps 746 mmHg 90%
    16:00 +17°C° 0 mm 3 mps 746 mmHg 88%
    17:00 +17°C° 0 mm 2 mps 746 mmHg 86%
    18:00 +17°C° 0 mm 3 mps 746 mmHg 85%
    19:00 +17°C° 0 mm 3 mps 746 mmHg 84%
    20:00 +17°C° 0 mm 3 mps 746 mmHg 82%
    21:00 +17°C° 0 mm 3 mps 746 mmHg 81%
    22:00 +17°C° 0 mm 3 mps 746 mmHg 80%
    23:00 +17°C° 0 mm 3 mps 746 mmHg 79%

    24 July, Wednesday

    Time Temperature Precipitation Wind Pressure Humidity
    00:00 +16°C° 0 mm 3 mps 746 mmHg 82%
    01:00 +13°C° 0 mm 3 mps 746 mmHg 85%
    02:00 +12°C° 0 mm 3 mps 746 mmHg 88%
    03:00 +12°C° 0 mm 3 mps 746 mmHg 88%
    04:00 +12°C° 0 mm 3 mps 746 mmHg 88%
    05:00 +12°C° 0 mm 3 mps 746 mmHg 87%
    06:00 +14°C° 0 mm 4 mps 747 mmHg 81%
    07:00 +15°C° 0 mm 4 mps 747 mmHg 75%
    08:00 +17°C° 0 mm 5 mps 747 mmHg 69%
    09:00 +19°C° 0 mm 5 mps 747 mmHg 63%
    10:00 +21°C° 0 mm 5 mps 747 mmHg 57%
    11:00 +22°C° 0 mm 5 mps 747 mmHg 51%
    12:00 +23°C° 0 mm 5 mps 747 mmHg 51%
    13:00 +23°C° 0 mm 5 mps 747 mmHg 51%
    14:00 +25°C° 0 mm 5 mps 747 mmHg 51%
    15:00 +23°C° 0 mm 4 mps 747 mmHg 56%
    16:00 +23°C° 0 mm 4 mps 747 mmHg 61%
    17:00 +22°C° 0 mm 4 mps 746 mmHg 66%
    18:00 +21°C° 0.1 mm 4 mps 746 mmHg 69%
    19:00 +19°C° 0.1 mm 3 mps 746 mmHg 73%
    20:00 +18°C° 0.1 mm 3 mps 746 mmHg 76%
    21:00 +17°C° 0 mm 3 mps 746 mmHg 79%
    22:00 +16°C° 0 mm 3 mps 746 mmHg 82%
    23:00 +16°C° 0 mm 3 mps 746 mmHg 84%
    Show more